Location: Brno
(49.2000°N, 16.6330°E)
Time: 08:08:34
(UTC+01:00)

Cosmos 1603 - Visible Passes

Search period start: 06 February 2016 00:00
Search period end: 16 February 2016 00:00
Orbit: 829 x 861 km, 71.0° (Epoch: 05 February)

Date Brightness Start Highest point End Pass type
(mag) Time Alt. Az. Time Alt. Az. Time Alt. Az.
06 Feb 6.3 02:37:07 15° NE 02:37:07 15° NE 02:38:58 10° ENE visible
06 Feb 4.2 04:19:03 41° N 04:20:50 59° ENE 04:26:28 10° SE visible
06 Feb 4.6 06:01:00 15° NW 06:04:35 27° WSW 06:09:14 10° SSW visible
06 Feb 3.7 19:11:09 10° S 19:16:43 55° ESE 19:17:15 53° E visible
06 Feb 5.6 20:56:01 10° WSW 20:59:14 26° W 20:59:14 26° W visible
07 Feb 6.5 02:24:24 12° ENE 02:24:24 12° ENE 02:24:58 10° ENE visible
07 Feb 4.2 04:06:22 55° NNE 04:06:56 58° ENE 04:12:32 10° SE visible
07 Feb 4.6 05:48:19 21° WNW 05:50:43 27° WSW 05:55:24 10° SSW visible
07 Feb 3.8 18:57:17 10° S 19:02:50 53° ESE 19:05:05 34° NE visible
07 Feb 5.2 20:42:04 10° WSW 20:47:04 33° NW 20:47:04 33° NW visible
08 Feb 4.4 03:53:51 51° E 03:53:51 51° E 03:58:38 10° SE visible
08 Feb 4.5 05:35:49 27° W 05:36:50 28° WSW 05:41:35 10° SSW visible
08 Feb 3.8 18:43:25 10° S 18:48:57 52° ESE 18:52:47 20° NE visible
08 Feb 5.2 20:28:08 10° WSW 20:33:20 34° NW 20:34:45 30° NNW visible
09 Feb 5.1 03:41:30 33° ESE 03:41:30 33° ESE 03:44:43 10° SE visible
09 Feb 4.5 05:23:29 28° WSW 05:23:29 28° WSW 05:27:45 10° SSW visible
09 Feb 3.9 18:29:33 10° S 18:35:04 50° ESE 18:40:18 12° NE visible
09 Feb 5.1 20:14:11 10° WSW 20:19:26 35° NW 20:22:15 23° N visible
09 Feb 6.6 22:03:33 10° NW 22:04:13 11° NW 22:04:13 11° NW visible
10 Feb 5.8 03:29:18 18° SE 03:29:18 18° SE 03:30:47 10° SE visible
10 Feb 5.0 05:11:18 23° SW 05:11:18 23° SW 05:13:55 10° SSW visible
10 Feb 3.9 18:15:42 10° S 18:21:11 49° ESE 18:26:44 10° NE visible
10 Feb 5.1 20:00:16 10° WSW 20:05:31 36° NW 20:09:35 16° N visible
10 Feb 6.5 21:49:31 10° NW 21:51:31 12° NNW 21:51:31 12° NNW visible
11 Feb 5.6 04:59:14 14° SSW 04:59:14 14° SSW 05:00:05 10° SSW visible
11 Feb 4.0 18:01:50 10° S 18:07:18 48° ESE 18:12:49 10° NE visible
11 Feb 5.1 19:46:19 10° WSW 19:51:36 36° NW 19:56:44 11° NNE visible
11 Feb 6.5 21:35:30 10° NW 21:37:35 12° NNW 21:38:41 11° NNW visible
12 Feb 4.1 17:47:58 10° S 17:53:26 46° ESE 17:58:55 10° NE visible
12 Feb 5.1 19:32:24 10° WSW 19:37:42 37° NW 19:43:03 10° NNE visible
12 Feb 6.4 21:21:28 10° NW 21:23:39 12° NNW 21:25:41 10° N visible
13 Feb 4.1 17:34:07 10° S 17:39:33 45° ESE 17:45:01 10° NE visible
13 Feb 5.1 19:18:28 10° WSW 19:23:48 38° NW 19:29:10 10° NNE visible
13 Feb 6.4 21:07:27 10° NW 21:09:43 12° NNW 21:11:59 10° N visible
14 Feb 5.0 19:04:32 10° WSW 19:09:53 39° NW 19:15:17 10° NNE visible
14 Feb 6.4 20:53:25 10° NW 20:55:47 12° NNW 20:58:09 10° N visible
15 Feb 5.0 18:50:36 10° WSW 18:55:59 40° NW 19:01:24 10° NNE visible
15 Feb 6.4 20:39:25 10° NW 20:41:51 13° NNW 20:44:17 10° N visible
